Time,TemperatureF,DewpointF,PressureIn,WindDirection,WindDirectionDegrees,WindSpeedMPH,WindSpeedGustMPH,Humidity,HourlyPrecipIn,Conditions,Clouds,dailyrainin,SoftwareType,DateUTC
2013-01-20 00:00:00,38.4,29.8,30.05,ENE,71,5.0,5.0,71,0.00,CLR,SCT,0.00,WeatherDisplay:10.37,2013-01-20 05:00:00,
2013-01-20 00:04:00,38.3,29.7,30.05,NE,54,4.6,4.6,71,0.00,CLR,SCT,0.00,WeatherDisplay:10.37,2013-01-20 05:04:00,
2013-01-20 00:09:00,38.4,29.8,30.04,NE,44,4.6,4.6,71,0.00,CLR,SCT,0.00,WeatherDisplay:10.37,2013-01-20 05:09:00,
2013-01-20 00:14:00,38.3,29.7,30.04,NE,47,5.8,5.8,71,0.00,CLR,SCT,0.00,WeatherDisplay:10.37,2013-01-20 05:14:00,
2013-01-20 00:19:00,38.3,29.7,30.04,NNW,332,4.6,4.6,71,0.00,CLR,SCT,0.00,WeatherDisplay:10.37,2013-01-20 05:19:00,
2013-01-20 00:24:00,38.1,29.5,30.03,ENE,59,4.6,4.6,71,0.00,CLR,SCT,0.00,WeatherDisplay:10.37,2013-01-20 05:24:00,
2013-01-20 00:29:00,37.9,29.3,30.03,ESE,109,3.5,3.5,71,0.00,CLR,SCT,0.00,WeatherDisplay:10.37,2013-01-20 05:29:00,
2013-01-20 00:34:00,37.7,29.5,30.03,SSE,150,3.5,3.5,72,0.00,CLR,SCT,0.00,WeatherDisplay:10.37,2013-01-20 05:34:00,
2013-01-20 00:39:00,37.6,29.4,30.03,SSE,154,3.5,3.5,72,0.00,CLR,SCT,0.00,WeatherDisplay:10.37,2013-01-20 05:39:00,
2013-01-20 00:44:00,37.6,29.4,30.03,NE,40,2.3,2.3,72,0.00,CLR,SCT,0.00,WeatherDisplay:10.37,2013-01-20 05:44:00,
2013-01-20 00:49:00,37.9,29.3,30.03,NE,55,6.9,6.9,71,0.00,CLR,SCT,0.00,WeatherDisplay:10.37,2013-01-20 05:49:00,
2013-01-20 00:54:00,37.8,29.2,30.03,NNW,347,5.0,5.0,71,0.00,CLR,SCT,0.00,WeatherDisplay:10.37,2013-01-20 05:54:00,
2013-01-20 00:59:00,37.8,28.9,30.03,NW,322,4.6,4.6,70,0.00,CLR,SCT,0.00,WeatherDisplay:10.37,2013-01-20 05:59:00,
2013-01-20 01:04:00,37.8,28.9,30.03,ENE,76,6.9,6.9,70,0.00,CLR,SCT,0.00,WeatherDisplay:10.37,2013-01-20 06:04:00,
2013-01-20 01:09:00,37.9,29.0,30.03,NW,313,8.1,8.1,70,0.00,CLR,SCT,0.00,WeatherDisplay:10.37,2013-01-20 06:09:00,
2013-01-20 01:14:00,38.2,28.6,30.03,NE,40,4.6,4.6,68,0.00,CLR,SCT,0.00,WeatherDisplay:10.37,2013-01-20 06:14:00,
2013-01-20 01:19:00,38.7,29.0,30.03,ENE,75,8.1,8.1,68,0.00,CLR,SCT,0.00,WeatherDisplay:10.37,2013-01-20 06:19:00,
2013-01-20 01:24:00,39.1,28.7,30.02,East,82,6.9,6.9,66,0.00,CLR,SCT,0.00,WeatherDisplay:10.37,2013-01-20 06:24:00,
2013-01-20 01:29:00,39.4,28.6,30.02,WNW,299,10.4,10.4,65,0.00,CLR,SCT,0.00,WeatherDisplay:10.37,2013-01-20 06:29:00,
2013-01-20 01:34:00,39.5,28.7,30.02,NNE,13,10.4,10.4,65,0.00,CLR,SCT,0.00,WeatherDisplay:10.37,2013-01-20 06:34:00,
2013-01-20 01:39:00,39.5,28.3,30.02,NW,309,10.1,10.1,64,0.00,CLR,SCT,0.00,WeatherDisplay:10.37,2013-01-20 06:39:00,
2013-01-20 01:44:00,40.0,28.4,30.02,NW,306,11.5,11.5,63,0.00,CLR,SCT,0.00,WeatherDisplay:10.37,2013-01-20 06:44:00,
2013-01-20 01:49:00,40.2,28.2,30.02,ENE,58,9.2,9.2,62,0.00,CLR,SCT,0.00,WeatherDisplay:10.37,2013-01-20 06:49:00,
2013-01-20 01:54:00,40.3,28.3,30.02,West,270,13.8,13.8,62,0.00,CLR,SCT,0.00,WeatherDisplay:10.37,2013-01-20 06:54:00,
2013-01-20 01:59:00,40.6,28.2,30.02,North,7,8.1,8.1,61,0.00,CLR,SCT,0.00,WeatherDisplay:10.37,2013-01-20 06:59:00,
2013-01-20 02:04:00,40.5,28.1,30.02,NNE,18,3.5,3.5,61,0.00,CLR,SCT,0.00,WeatherDisplay:10.37,2013-01-20 07:04:00,
2013-01-20 02:09:00,40.5,28.1,30.02,WSW,248,5.8,5.8,61,0.00,CLR,SCT,0.00,WeatherDisplay:10.37,2013-01-20 07:09:00,
2013-01-20 02:14:00,40.5,27.7,30.02,ENE,58,8.1,8.1,60,0.00,CLR,SCT,0.00,WeatherDisplay:10.37,2013-01-20 07:14:00,
2013-01-20 02:19:00,40.7,27.9,30.02,NNE,28,5.8,5.8,60,0.00,CLR,SCT,0.00,WeatherDisplay:10.37,2013-01-20 07:19:00,
2013-01-20 02:24:00,40.7,27.9,30.01,NE,55,4.6,4.6,60,0.00,CLR,SCT,0.00,WeatherDisplay:10.37,2013-01-20 07:24:00,
2013-01-20 02:29:00,40.8,27.6,30.01,SW,230,10.4,10.4,59,0.00,CLR,SCT,0.00,WeatherDisplay:10.37,2013-01-20 07:29:00,
2013-01-20 02:34:00,40.9,27.7,30.01,North,10,5.8,5.8,59,0.00,CLR,SCT,0.00,WeatherDisplay:10.37,2013-01-20 07:34:00,
2013-01-20 02:39:00,40.6,27.8,30.02,South,171,5.8,5.8,60,0.00,CLR,SCT,0.00,WeatherDisplay:10.37,2013-01-20 07:39:00,
2013-01-20 02:44:00,40.5,27.7,30.01,NW,320,3.7,3.7,60,0.00,CLR,SCT,0.00,WeatherDisplay:10.37,2013-01-20 07:44:00,
2013-01-20 02:49:00,40.5,27.3,30.01,WSW,239,4.6,4.6,59,0.00,CLR,SCT,0.00,WeatherDisplay:10.37,2013-01-20 07:49:00,
2013-01-20 02:54:00,40.6,27.0,30.01,North,4,5.8,5.8,58,0.00,CLR,SCT,0.00,WeatherDisplay:10.37,2013-01-20 07:54:00,
2013-01-20 02:59:00,40.6,27.4,30.01,West,264,10.4,10.4,59,0.00,CLR,SCT,0.00,WeatherDisplay:10.37,2013-01-20 07:59:00,
2013-01-20 03:04:00,40.5,27.3,30.01,ENE,66,5.8,5.8,59,0.00,CLR,SCT,0.00,WeatherDisplay:10.37,2013-01-20 08:04:00,
2013-01-20 03:09:00,40.5,27.3,30.01,WNW,289,5.8,5.8,59,0.00,CLR,SCT,0.00,WeatherDisplay:10.37,2013-01-20 08:09:00,
2013-01-20 03:14:00,40.5,27.7,30.01,West,272,3.5,3.5,60,0.00,CLR,SCT,0.00,WeatherDisplay:10.37,2013-01-20 08:14:00,
2013-01-20 03:19:00,40.4,27.6,30.00,SW,233,6.9,6.9,60,0.00,CLR,SCT,0.00,WeatherDisplay:10.37,2013-01-20 08:19:00,
2013-01-20 03:24:00,40.4,27.6,30.00,NW,304,5.8,5.8,60,0.00,CLR,SCT,0.00,WeatherDisplay:10.37,2013-01-20 08:24:00,
2013-01-20 03:29:00,40.7,27.5,30.00,WSW,240,11.5,11.5,59,0.00,CLR,SCT,0.00,WeatherDisplay:10.37,2013-01-20 08:29:00,
2013-01-20 03:34:00,40.7,27.9,30.00,ENE,58,6.9,6.9,60,0.00,CLR,SCT,0.00,WeatherDisplay:10.37,2013-01-20 08:34:00,
2013-01-20 03:39:00,40.8,27.6,30.00,WNW,289,9.2,9.2,59,0.00,CLR,SCT,0.00,WeatherDisplay:10.37,2013-01-20 08:39:00,
2013-01-20 03:44:00,41.1,27.9,30.00,NW,323,5.8,5.8,59,0.00,CLR,SCT,0.00,WeatherDisplay:10.37,2013-01-20 08:44:00,
2013-01-20 03:49:00,41.1,28.3,30.00,West,268,5.9,5.9,60,0.00,CLR,SCT,0.00,WeatherDisplay:10.37,2013-01-20 08:49:00,
2013-01-20 03:54:00,40.9,27.7,29.99,SSW,205,2.3,2.3,59,0.00,CLR,SCT,0.00,WeatherDisplay:10.37,2013-01-20 08:54:00,
2013-01-20 03:59:00,40.7,27.9,29.99,East,82,2.6,2.6,60,0.00,CLR,SCT,0.00,WeatherDisplay:10.37,2013-01-20 08:59:00,
2013-01-20 04:04:00,40.6,27.8,29.99,WSW,247,6.1,6.1,60,0.00,CLR,SCT,0.00,WeatherDisplay:10.37,2013-01-20 09:04:00,
2013-01-20 04:09:00,40.7,27.9,29.99,NW,306,5.8,5.8,60,0.00,CLR,SCT,0.00,WeatherDisplay:10.37,2013-01-20 09:09:00,
2013-01-20 04:14:00,40.6,28.2,29.99,ENE,65,3.5,3.5,61,0.00,CLR,SCT,0.00,WeatherDisplay:10.37,2013-01-20 09:14:00,
2013-01-20 04:19:00,40.5,28.1,29.99,South,172,4.4,4.4,61,0.00,CLR,SCT,0.00,WeatherDisplay:10.37,2013-01-20 09:19:00,
2013-01-20 04:24:00,40.3,27.9,29.99,ENE,71,5.8,5.8,61,0.00,CLR,SCT,0.00,WeatherDisplay:10.37,2013-01-20 09:24:00,
2013-01-20 04:29:00,40.3,28.3,29.99,NE,38,3.5,3.5,62,0.00,CLR,SCT,0.00,WeatherDisplay:10.37,2013-01-20 09:29:00,
2013-01-20 04:34:00,40.1,28.5,29.99,NE,55,10.6,10.6,63,0.00,CLR,SCT,0.00,WeatherDisplay:10.37,2013-01-20 09:34:00,
2013-01-20 04:39:00,40.4,28.4,29.98,North,11,23.0,23.0,62,0.00,CLR,SCT,0.00,WeatherDisplay:10.37,2013-01-20 09:39:00,
2013-01-20 04:44:00,41.0,29.0,29.98,SSW,208,5.8,5.8,62,0.00,CLR,SCT,0.00,WeatherDisplay:10.37,2013-01-20 09:44:00,
2013-01-20 04:49:00,40.7,28.7,29.98,ENE,61,6.9,6.9,62,0.00,CLR,SCT,0.00,WeatherDisplay:10.37,2013-01-20 09:49:00,
2013-01-20 04:54:00,40.7,28.7,29.98,South,174,3.5,3.5,62,0.00,CLR,SCT,0.00,WeatherDisplay:10.37,2013-01-20 09:54:00,
2013-01-20 04:59:00,40.5,28.9,29.98,NE,40,5.8,5.8,63,0.00,CLR,SCT,0.00,WeatherDisplay:10.37,2013-01-20 09:59:00,
2013-01-20 05:04:00,40.0,28.8,29.98,ENE,62,7.2,7.2,64,0.00,CLR,SCT,0.00,WeatherDisplay:10.37,2013-01-20 10:04:00,
2013-01-20 05:09:00,39.9,29.1,29.98,NE,52,7.4,7.4,65,0.00,CLR,SCT,0.00,WeatherDisplay:10.37,2013-01-20 10:09:00,
2013-01-20 05:14:00,39.6,29.2,29.99,WNW,296,5.8,5.8,66,0.00,CLR,SCT,0.00,WeatherDisplay:10.37,2013-01-20 10:14:00,
2013-01-20 05:19:00,39.4,29.0,29.99,ENE,68,7.0,7.0,66,0.00,CLR,SCT,0.00,WeatherDisplay:10.37,2013-01-20 10:19:00,
2013-01-20 05:24:00,39.4,29.0,29.99,ENE,66,5.8,5.8,66,0.00,CLR,SCT,0.00,WeatherDisplay:10.37,2013-01-20 10:24:00,
2013-01-20 05:29:00,39.5,29.1,29.99,ENE,69,13.8,13.8,66,0.00,CLR,SCT,0.00,WeatherDisplay:10.37,2013-01-20 10:29:00,
2013-01-20 05:34:00,39.8,29.4,29.99,North,4,11.5,11.5,66,0.00,CLR,SCT,0.00,WeatherDisplay:10.37,2013-01-20 10:34:00,
2013-01-20 05:39:00,40.0,29.6,29.99,WSW,240,15.0,15.0,66,0.00,CLR,SCT,0.00,WeatherDisplay:10.37,2013-01-20 10:39:00,
2013-01-20 05:44:00,40.2,29.7,29.99,ENE,64,9.2,9.2,66,0.00,CLR,SCT,0.00,WeatherDisplay:10.37,2013-01-20 10:44:00,
2013-01-20 05:49:00,40.2,29.7,29.99,NW,315,7.9,7.9,66,0.00,CLR,SCT,0.00,WeatherDisplay:10.37,2013-01-20 10:49:00,
2013-01-20 05:54:00,40.5,29.7,29.99,East,88,11.5,11.5,65,0.00,CLR,SCT,0.00,WeatherDisplay:10.37,2013-01-20 10:54:00,
2013-01-20 05:59:00,40.4,29.6,29.99,NE,37,5.8,5.8,65,0.00,CLR,SCT,0.00,WeatherDisplay:10.37,2013-01-20 10:59:00,
2013-01-20 06:04:00,40.4,29.9,29.99,ENE,71,5.8,5.8,66,0.00,CLR,SCT,0.00,WeatherDisplay:10.37,2013-01-20 11:04:00,
2013-01-20 06:09:00,40.5,30.0,29.99,SSW,200,11.5,11.5,66,0.00,CLR,SCT,0.00,WeatherDisplay:10.37,2013-01-20 11:09:00,
2013-01-20 06:14:00,40.4,29.9,29.99,East,95,11.5,11.5,66,0.00,CLR,SCT,0.00,WeatherDisplay:10.37,2013-01-20 11:14:00,
2013-01-20 06:19:00,40.4,29.9,29.99,East,83,8.1,8.1,66,0.00,CLR,SCT,0.00,WeatherDisplay:10.37,2013-01-20 11:19:00,
2013-01-20 06:24:00,40.5,30.0,29.99,East,88,17.3,17.3,66,0.00,CLR,SCT,0.00,WeatherDisplay:10.37,2013-01-20 11:24:00,
2013-01-20 06:29:00,40.6,30.1,29.99,West,281,5.8,5.8,66,0.00,CLR,SCT,0.00,WeatherDisplay:10.37,2013-01-20 11:29:00,
2013-01-20 06:34:00,40.5,30.0,29.99,NW,326,10.4,10.4,66,0.00,CLR,SCT,0.00,WeatherDisplay:10.37,2013-01-20 11:34:00,
2013-01-20 06:39:00,40.5,30.0,29.99,ENE,65,6.9,6.9,66,0.00,CLR,SCT,0.00,WeatherDisplay:10.37,2013-01-20 11:39:00,
2013-01-20 06:44:00,40.4,29.9,29.99,NNW,346,10.4,10.4,66,0.00,CLR,SCT,0.00,WeatherDisplay:10.37,2013-01-20 11:44:00,
2013-01-20 06:49:00,40.6,30.1,29.99,North,0,6.9,6.9,66,0.00,CLR,SCT,0.00,WeatherDisplay:10.37,2013-01-20 11:49:00,
2013-01-20 06:55:00,40.5,30.4,29.99,WNW,301,10.4,10.4,67,0.00,CLR,SCT,0.00,WeatherDisplay:10.37,2013-01-20 11:55:00,
2013-01-20 07:00:00,40.4,30.3,29.99,ENE,78,8.1,8.1,67,0.00,CLR,SCT,0.00,WeatherDisplay:10.37,2013-01-20 12:00:00,
2013-01-20 07:05:00,40.3,30.6,29.99,SW,226,6.9,6.9,68,0.00,CLR,SCT,0.00,WeatherDisplay:10.37,2013-01-20 12:05:00,
2013-01-20 07:10:00,40.2,30.5,29.99,NNE,27,5.8,5.8,68,0.00,CLR,SCT,0.00,WeatherDisplay:10.37,2013-01-20 12:10:00,
2013-01-20 07:15:00,40.0,30.3,29.99,NNW,336,11.5,11.5,68,0.00,CLR,SCT,0.00,WeatherDisplay:10.37,2013-01-20 12:15:00,
2013-01-20 07:20:00,40.0,30.3,29.99,SW,220,9.2,9.2,68,0.00,CLR,SCT,0.00,WeatherDisplay:10.37,2013-01-20 12:20:00,
2013-01-20 07:25:00,40.0,30.3,29.99,ESE,103,5.8,5.8,68,0.00,CLR,SCT,0.00,WeatherDisplay:10.37,2013-01-20 12:25:00,
2013-01-20 07:30:00,39.9,30.2,29.99,West,270,5.8,5.8,68,0.00,CLR,SCT,0.00,WeatherDisplay:10.37,2013-01-20 12:30:00,
2013-01-20 07:35:00,39.8,30.1,29.99,WSW,253,9.2,9.2,68,0.00,CLR,SCT,0.00,WeatherDisplay:10.37,2013-01-20 12:35:00,
2013-01-20 07:40:00,39.9,30.2,29.99,NNE,16,11.9,11.9,68,0.00,CLR,SCT,0.00,WeatherDisplay:10.37,2013-01-20 12:40:00,
2013-01-20 07:45:00,40.0,30.6,29.99,NE,37,8.0,8.0,69,0.00,CLR,SCT,0.00,WeatherDisplay:10.37,2013-01-20 12:45:00,
2013-01-20 07:50:00,40.0,30.3,29.99,ENE,76,6.9,6.9,68,0.00,CLR,SCT,0.00,WeatherDisplay:10.37,2013-01-20 12:50:00,
2013-01-20 07:55:00,39.9,30.5,29.99,NW,325,11.5,11.5,69,0.00,CLR,SCT,0.00,WeatherDisplay:10.37,2013-01-20 12:55:00,
2013-01-20 08:00:00,40.1,30.7,29.99,NE,49,8.1,8.1,69,0.00,CLR,SCT,0.00,WeatherDisplay:10.37,2013-01-20 13:00:00,
2013-01-20 08:05:00,40.2,30.8,29.99,NE,41,12.7,12.7,69,0.00,CLR,SCT,0.00,WeatherDisplay:10.37,2013-01-20 13:05:00,
2013-01-20 08:10:00,40.3,30.9,29.99,ENE,64,7.0,7.0,69,0.00,CLR,SCT,0.00,WeatherDisplay:10.37,2013-01-20 13:10:00,
2013-01-20 08:15:00,40.7,31.3,30.00,ENE,62,8.1,8.1,69,0.00,CLR,SCT,0.00,WeatherDisplay:10.37,2013-01-20 13:15:00,
2013-01-20 08:20:00,41.1,31.3,29.99,NNW,340,4.6,4.6,68,0.00,CLR,SCT,0.00,WeatherDisplay:10.37,2013-01-20 13:20:00,
2013-01-20 08:25:00,41.5,31.7,29.99,NE,56,5.8,5.8,68,0.00,CLR,SCT,0.00,WeatherDisplay:10.37,2013-01-20 13:25:00,
2013-01-20 08:30:00,41.9,32.1,30.00,North,360,8.1,8.1,68,0.00,CLR,SCT,0.00,WeatherDisplay:10.37,2013-01-20 13:30:00,
2013-01-20 08:35:00,42.3,32.1,30.00,West,268,5.8,5.8,67,0.00,CLR,SCT,0.00,WeatherDisplay:10.37,2013-01-20 13:35:00,
2013-01-20 08:40:00,42.5,32.3,29.99,NE,48,8.1,8.1,67,0.00,CLR,SCT,0.00,WeatherDisplay:10.37,2013-01-20 13:40:00,
2013-01-20 08:45:00,42.7,32.5,30.00,NNE,21,9.2,9.2,67,0.00,CLR,SCT,0.00,WeatherDisplay:10.37,2013-01-20 13:45:00,
2013-01-20 08:50:00,43.0,32.4,30.00,ESE,102,11.5,11.5,66,0.00,CLR,SCT,0.00,WeatherDisplay:10.37,2013-01-20 13:50:00,
2013-01-20 08:55:00,43.0,32.4,30.00,East,79,11.5,11.5,66,0.00,CLR,SCT,0.00,WeatherDisplay:10.37,2013-01-20 13:55:00,
2013-01-20 09:00:00,43.3,32.7,30.00,NW,308,8.1,8.1,66,0.00,CLR,SCT,0.00,WeatherDisplay:10.37,2013-01-20 14:00:00,
2013-01-20 09:05:00,43.5,32.9,30.00,East,83,6.9,6.9,66,0.00,CLR,SCT,0.00,WeatherDisplay:10.37,2013-01-20 14:05:00,
2013-01-20 09:10:00,43.8,33.2,30.00,NE,38,6.1,6.1,66,0.00,CLR,SCT,0.00,WeatherDisplay:10.37,2013-01-20 14:10:00,
2013-01-20 09:15:00,44.1,33.1,30.00,NNW,339,6.9,6.9,65,0.00,CLR,SCT,0.00,WeatherDisplay:10.37,2013-01-20 14:15:00,
2013-01-20 09:20:00,44.5,33.1,30.01,NNW,347,9.2,9.2,64,0.00,CLR,SCT,0.00,WeatherDisplay:10.37,2013-01-20 14:20:00,
2013-01-20 09:25:00,44.9,33.5,30.01,NNE,25,8.1,8.1,64,0.00,CLR,SCT,0.00,WeatherDisplay:10.37,2013-01-20 14:25:00,
2013-01-20 09:30:00,45.3,33.4,30.01,WNW,284,13.8,13.8,63,0.00,CLR,SCT,0.00,WeatherDisplay:10.37,2013-01-20 14:30:00,
2013-01-20 09:35:00,45.6,33.7,30.01,SSW,192,6.9,6.9,63,0.00,CLR,SCT,0.00,WeatherDisplay:10.37,2013-01-20 14:35:00,
2013-01-20 09:40:00,46.0,33.7,30.01,West,280,5.8,5.8,62,0.00,CLR,SCT,0.00,WeatherDisplay:10.37,2013-01-20 14:40:00,
2013-01-20 09:45:00,46.2,33.9,30.01,NNE,13,11.5,11.5,62,0.00,CLR,SCT,0.00,WeatherDisplay:10.37,2013-01-20 14:45:00,
2013-01-20 09:50:00,46.6,33.9,30.02,NNE,32,5.8,5.8,61,0.00,CLR,SCT,0.00,WeatherDisplay:10.37,2013-01-20 14:50:00,
2013-01-20 09:55:00,47.0,34.2,30.02,North,353,13.8,13.8,61,0.00,CLR,SCT,0.00,WeatherDisplay:10.37,2013-01-20 14:55:00,
2013-01-20 10:00:00,47.1,33.9,30.01,West,280,8.1,8.1,60,0.00,CLR,SCT,0.00,WeatherDisplay:10.37,2013-01-20 15:00:00,
2013-01-20 10:05:00,47.4,34.2,30.01,NE,42,12.7,12.7,60,0.00,CLR,SCT,0.00,WeatherDisplay:10.37,2013-01-20 15:05:00,
2013-01-20 10:10:00,47.4,34.2,30.02,ENE,76,6.9,6.9,60,0.00,CLR,SCT,0.00,WeatherDisplay:10.37,2013-01-20 15:10:00,
2013-01-20 10:15:00,47.8,34.2,30.01,NE,42,13.8,13.8,59,0.00,CLR,SCT,0.00,WeatherDisplay:10.37,2013-01-20 15:15:00,
2013-01-20 10:20:00,47.9,34.3,30.02,NNE,18,7.2,7.2,59,0.00,CLR,SCT,0.00,WeatherDisplay:10.37,2013-01-20 15:20:00,
2013-01-20 10:25:00,48.2,34.5,30.01,NNE,31,10.4,10.4,59,0.00,CLR,SCT,0.00,WeatherDisplay:10.37,2013-01-20 15:25:00,
2013-01-20 10:30:00,48.4,34.3,30.02,NNE,30,9.3,9.3,58,0.00,CLR,SCT,0.00,WeatherDisplay:10.37,2013-01-20 15:30:00,
2013-01-20 10:35:00,48.8,34.7,30.02,NE,55,12.7,12.7,58,0.00,CLR,SCT,0.00,WeatherDisplay:10.37,2013-01-20 15:35:00,
2013-01-20 10:40:00,49.2,34.6,30.02,North,353,7.4,7.4,57,0.00,CLR,SCT,0.00,WeatherDisplay:10.37,2013-01-20 15:40:00,
2013-01-20 10:45:00,49.8,34.7,30.02,West,277,8.1,8.1,56,0.00,CLR,SCT,0.00,WeatherDisplay:10.37,2013-01-20 15:45:00,
2013-01-20 10:50:00,49.9,34.8,30.02,SW,234,4.6,4.6,56,0.00,CLR,SCT,0.00,WeatherDisplay:10.37,2013-01-20 15:50:00,
2013-01-20 10:55:00,50.4,34.8,30.02,North,357,9.2,9.2,55,0.00,CLR,SCT,0.00,WeatherDisplay:10.37,2013-01-20 15:55:00,
2013-01-20 11:00:00,50.5,34.9,30.02,NW,306,10.4,10.4,55,0.00,CLR,SCT,0.00,WeatherDisplay:10.37,2013-01-20 16:00:00,
2013-01-20 11:05:00,51.0,34.9,30.01,WNW,288,9.2,9.2,54,0.00,CLR,SCT,0.00,WeatherDisplay:10.37,2013-01-20 16:05:00,
2013-01-20 11:10:00,51.2,35.6,30.02,North,349,8.1,8.1,55,0.00,CLR,SCT,0.00,WeatherDisplay:10.37,2013-01-20 16:10:00,
2013-01-20 11:15:00,51.5,35.9,30.01,NW,311,5.9,5.9,55,0.00,CLR,SCT,0.00,WeatherDisplay:10.37,2013-01-20 16:15:00,
2013-01-20 11:20:00,51.8,35.7,30.01,NNW,337,4.5,4.5,54,0.00,CLR,SCT,0.00,WeatherDisplay:10.37,2013-01-20 16:20:00,
2013-01-20 11:25:00,52.0,35.4,30.01,WNW,289,11.5,11.5,53,0.00,CLR,SCT,0.00,WeatherDisplay:10.37,2013-01-20 16:25:00,
2013-01-20 11:30:00,52.0,35.4,30.01,North,356,9.2,9.2,53,0.00,CLR,SCT,0.00,WeatherDisplay:10.37,2013-01-20 16:30:00,
2013-01-20 11:35:00,52.1,35.0,30.01,NW,305,8.1,8.1,52,0.00,CLR,SCT,0.00,WeatherDisplay:10.37,2013-01-20 16:35:00,
2013-01-20 11:40:00,52.3,35.2,30.00,North,3,5.8,5.8,52,0.00,CLR,SCT,0.00,WeatherDisplay:10.37,2013-01-20 16:40:00,
2013-01-20 11:45:00,52.6,35.5,30.00,WNW,291,12.7,12.7,52,0.00,CLR,SCT,0.00,WeatherDisplay:10.37,2013-01-20 16:45:00,
2013-01-20 11:50:00,52.9,35.7,30.00,West,271,4.6,4.6,52,0.00,CLR,SCT,0.00,WeatherDisplay:10.37,2013-01-20 16:50:00,
2013-01-20 11:55:00,53.4,35.7,30.00,NNW,328,4.6,4.6,51,0.00,CLR,SCT,0.00,WeatherDisplay:10.37,2013-01-20 16:55:00,
2013-01-20 12:00:00,53.7,36.0,30.00,NW,304,4.6,4.6,51,0.00,CLR,SCT,0.00,WeatherDisplay:10.37,2013-01-20 17:00:00,
2013-01-20 12:05:00,53.7,36.0,29.99,West,281,6.9,6.9,51,0.00,CLR,SCT,0.00,WeatherDisplay:10.37,2013-01-20 17:05:00,
2013-01-20 12:10:00,54.1,36.4,29.99,ENE,76,6.5,6.5,51,0.00,CLR,SCT,0.00,WeatherDisplay:10.37,2013-01-20 17:10:00,
2013-01-20 12:15:00,54.3,35.5,29.99,NNW,347,13.8,13.8,49,0.00,CLR,SCT,0.00,WeatherDisplay:10.37,2013-01-20 17:15:00,
2013-01-20 12:20:00,54.2,35.4,29.99,WNW,285,6.9,6.9,49,0.00,CLR,SCT,0.00,WeatherDisplay:10.37,2013-01-20 17:20:00,
2013-01-20 12:25:00,54.3,35.0,29.99,North,7,9.2,9.2,48,0.00,CLR,SCT,0.00,WeatherDisplay:10.37,2013-01-20 17:25:00,
2013-01-20 12:30:00,54.3,35.0,29.99,SW,230,12.7,12.7,48,0.00,CLR,SCT,0.00,WeatherDisplay:10.37,2013-01-20 17:30:00,
2013-01-20 12:35:00,54.4,35.6,29.98,South,179,4.6,4.6,49,0.00,CLR,SCT,0.00,WeatherDisplay:10.37,2013-01-20 17:35:00,
2013-01-20 12:40:00,54.9,36.1,29.98,WNW,299,5.8,5.8,49,0.00,CLR,SCT,0.00,WeatherDisplay:10.37,2013-01-20 17:40:00,
2013-01-20 12:45:00,55.2,35.3,29.98,NNW,347,16.1,16.1,47,0.00,CLR,SCT,0.00,WeatherDisplay:10.37,2013-01-20 17:45:00,
2013-01-20 12:50:00,55.2,35.8,29.98,NNE,14,11.3,11.3,48,0.00,CLR,SCT,0.00,WeatherDisplay:10.37,2013-01-20 17:50:00,
2013-01-20 12:55:00,55.5,36.1,29.98,NE,38,9.2,9.2,48,0.00,CLR,SCT,0.00,WeatherDisplay:10.37,2013-01-20 17:55:00,
2013-01-20 13:00:00,55.6,36.2,29.97,NE,40,4.6,4.6,48,0.00,CLR,SCT,0.00,WeatherDisplay:10.37,2013-01-20 18:00:00,
2013-01-20 13:05:00,55.9,35.9,29.97,NE,56,10.4,10.4,47,0.00,CLR,SCT,0.00,WeatherDisplay:10.37,2013-01-20 18:05:00,
2013-01-20 13:10:00,55.8,35.3,29.97,NE,48,18.4,18.4,46,0.00,CLR,SCT,0.00,WeatherDisplay:10.37,2013-01-20 18:10:00,
2013-01-20 13:15:00,56.2,35.7,29.97,NNE,18,5.8,5.8,46,0.00,CLR,SCT,0.00,WeatherDisplay:10.37,2013-01-20 18:15:00,
2013-01-20 13:20:00,56.5,36.0,29.97,SW,229,8.1,8.1,46,0.00,CLR,SCT,0.00,WeatherDisplay:10.37,2013-01-20 18:20:00,
2013-01-20 13:25:00,56.7,35.6,29.97,NW,312,7.2,7.3,45,0.00,CLR,SCT,0.00,WeatherDisplay:10.37,2013-01-20 18:25:00,
2013-01-20 13:30:00,56.9,36.3,29.97,West,260,12.4,12.4,46,0.00,CLR,SCT,0.00,WeatherDisplay:10.37,2013-01-20 18:30:00,
2013-01-20 13:35:00,56.8,35.7,29.96,WNW,301,10.4,10.4,45,0.00,CLR,SCT,0.00,WeatherDisplay:10.37,2013-01-20 18:35:00,
2013-01-20 13:40:00,56.6,35.5,29.96,SW,220,12.7,12.7,45,0.00,CLR,SCT,0.00,WeatherDisplay:10.37,2013-01-20 18:40:00,
2013-01-20 13:45:00,56.9,35.8,29.96,North,10,10.4,10.4,45,0.00,CLR,SCT,0.00,WeatherDisplay:10.37,2013-01-20 18:45:00,
2013-01-20 13:50:00,57.1,35.4,29.96,NNW,332,11.5,11.5,44,0.00,CLR,SCT,0.00,WeatherDisplay:10.37,2013-01-20 18:50:00,
2013-01-20 13:55:00,57.2,35.5,29.96,NW,320,9.2,9.2,44,0.00,CLR,SCT,0.00,WeatherDisplay:10.37,2013-01-20 18:55:00,
2013-01-20 14:00:00,57.6,35.2,29.96,NW,312,6.4,6.4,43,0.00,CLR,SCT,0.00,WeatherDisplay:10.37,2013-01-20 19:00:00,
2013-01-20 14:05:00,57.7,35.3,29.96,NNE,24,9.2,9.2,43,0.00,CLR,SCT,0.00,WeatherDisplay:10.37,2013-01-20 19:05:00,
2013-01-20 14:10:00,57.7,35.3,29.96,NNW,337,6.9,6.9,43,0.00,CLR,SCT,0.00,WeatherDisplay:10.37,2013-01-20 19:10:00,
2013-01-20 14:15:00,58.1,35.7,29.96,NNE,18,4.6,5.2,43,0.00,CLR,SCT,0.00,WeatherDisplay:10.37,2013-01-20 19:15:00,
2013-01-20 14:20:00,57.8,34.8,29.96,NNE,21,8.1,8.1,42,0.00,CLR,SCT,0.00,WeatherDisplay:10.37,2013-01-20 19:20:00,
2013-01-20 14:25:00,57.7,34.7,29.97,NW,316,9.2,9.2,42,0.00,CLR,SCT,0.00,WeatherDisplay:10.37,2013-01-20 19:25:00,
2013-01-20 14:30:00,58.0,35.0,29.96,North,10,4.6,4.6,42,0.00,CLR,SCT,0.00,WeatherDisplay:10.37,2013-01-20 19:30:00,
2013-01-20 14:35:00,58.5,34.9,29.96,NE,42,10.4,10.4,41,0.00,CLR,SCT,0.00,WeatherDisplay:10.37,2013-01-20 19:35:00,
2013-01-20 14:40:00,58.3,34.7,29.96,WSW,237,8.1,8.1,41,0.00,CLR,SCT,0.00,WeatherDisplay:10.37,2013-01-20 19:40:00,
2013-01-20 14:45:00,57.7,34.7,29.97,NW,319,6.9,6.9,42,0.00,CLR,SCT,0.00,WeatherDisplay:10.37,2013-01-20 19:45:00,
2013-01-20 14:50:00,57.7,34.1,29.96,West,265,9.2,9.2,41,0.00,CLR,SCT,0.00,WeatherDisplay:10.37,2013-01-20 19:50:00,
2013-01-20 14:56:00,57.8,34.8,29.96,North,11,4.2,4.2,42,0.00,CLR,SCT,0.00,WeatherDisplay:10.37,2013-01-20 19:56:00,
2013-01-20 15:01:00,58.0,33.8,29.96,WSW,243,4.6,4.6,40,0.00,CLR,SCT,0.00,WeatherDisplay:10.37,2013-01-20 20:01:00,
2013-01-20 15:06:00,58.1,34.5,29.96,NNE,32,6.9,6.9,41,0.00,CLR,SCT,0.00,WeatherDisplay:10.37,2013-01-20 20:06:00,
2013-01-20 15:11:00,58.6,34.3,29.96,North,7,6.9,6.9,40,0.00,CLR,SCT,0.00,WeatherDisplay:10.37,2013-01-20 20:11:00,
2013-01-20 15:16:00,58.6,33.7,29.96,ENE,76,10.4,10.4,39,0.00,CLR,SCT,0.00,WeatherDisplay:10.37,2013-01-20 20:16:00,
2013-01-20 15:21:00,58.2,33.3,29.97,ENE,65,6.9,6.9,39,0.00,CLR,SCT,0.00,WeatherDisplay:10.37,2013-01-20 20:21:00,
2013-01-20 15:26:00,58.0,32.5,29.96,North,6,10.4,10.4,38,0.00,CLR,SCT,0.00,WeatherDisplay:10.37,2013-01-20 20:26:00,
2013-01-20 15:31:00,57.8,33.0,29.97,NE,47,4.6,4.6,39,0.00,CLR,SCT,0.00,WeatherDisplay:10.37,2013-01-20 20:31:00,
2013-01-20 15:36:00,57.8,33.0,29.97,NNW,337,12.7,12.7,39,0.00,CLR,SCT,0.00,WeatherDisplay:10.37,2013-01-20 20:36:00,
2013-01-20 15:41:00,57.7,32.2,29.97,North,350,9.2,9.2,38,0.00,CLR,SCT,0.00,WeatherDisplay:10.37,2013-01-20 20:41:00,
2013-01-20 15:46:00,57.5,32.7,29.97,NNE,21,7.6,7.6,39,0.00,CLR,SCT,0.00,WeatherDisplay:10.37,2013-01-20 20:46:00,
2013-01-20 15:51:00,57.1,31.7,29.97,NW,306,11.5,11.5,38,0.00,CLR,SCT,0.00,WeatherDisplay:10.37,2013-01-20 20:51:00,
2013-01-20 15:56:00,56.8,31.4,29.97,NNE,17,8.1,8.1,38,0.00,CLR,SCT,0.00,WeatherDisplay:10.37,2013-01-20 20:56:00,
2013-01-20 16:01:00,56.3,31.6,29.97,NE,38,15.0,15.0,39,0.00,CLR,SCT,0.00,WeatherDisplay:10.37,2013-01-20 21:01:00,
2013-01-20 16:06:00,55.8,30.5,29.97,NNE,23,10.4,10.4,38,0.00,CLR,SCT,0.00,WeatherDisplay:10.37,2013-01-20 21:06:00,
2013-01-20 16:11:00,55.8,31.8,29.98,North,357,9.2,9.2,40,0.00,CLR,SCT,0.00,WeatherDisplay:10.37,2013-01-20 21:11:00,
2013-01-20 16:16:00,55.7,31.7,29.98,WNW,288,5.8,5.8,40,0.00,CLR,SCT,0.00,WeatherDisplay:10.37,2013-01-20 21:16:00,
2013-01-20 16:21:00,55.5,30.9,29.98,NW,323,11.5,11.5,39,0.00,CLR,SCT,0.00,WeatherDisplay:10.37,2013-01-20 21:21:00,
2013-01-20 16:26:00,55.2,30.7,29.98,NNE,27,10.4,10.4,39,0.00,CLR,SCT,0.00,WeatherDisplay:10.37,2013-01-20 21:26:00,
2013-01-20 16:31:00,54.7,30.8,29.99,NE,41,6.9,6.9,40,0.00,CLR,SCT,0.00,WeatherDisplay:10.37,2013-01-20 21:31:00,
2013-01-20 16:36:00,54.2,30.4,29.99,NW,320,8.1,8.1,40,0.00,CLR,SCT,0.00,WeatherDisplay:10.37,2013-01-20 21:36:00,
2013-01-20 16:41:00,53.5,29.7,29.99,NNW,329,6.9,6.9,40,0.00,CLR,SCT,0.00,WeatherDisplay:10.37,2013-01-20 21:41:00,
2013-01-20 16:46:00,52.9,29.2,29.99,WNW,292,6.9,6.9,40,0.00,CLR,SCT,0.00,WeatherDisplay:10.37,2013-01-20 21:46:00,
2013-01-20 16:51:00,52.5,29.5,29.99,North,8,8.1,8.1,41,0.00,CLR,SCT,0.00,WeatherDisplay:10.37,2013-01-20 21:51:00,
2013-01-20 16:56:00,51.8,28.8,29.99,NNE,17,4.6,4.6,41,0.00,CLR,SCT,0.00,WeatherDisplay:10.37,2013-01-20 21:56:00,
2013-01-20 17:01:00,51.5,29.1,29.99,West,270,4.6,4.6,42,0.00,CLR,SCT,0.00,WeatherDisplay:10.37,2013-01-20 22:01:00,
2013-01-20 17:06:00,51.2,28.9,29.99,NW,313,3.5,3.5,42,0.00,CLR,SCT,0.00,WeatherDisplay:10.37,2013-01-20 22:06:00,
2013-01-20 17:11:00,50.8,28.5,29.99,WNW,302,5.8,5.8,42,0.00,CLR,SCT,0.00,WeatherDisplay:10.37,2013-01-20 22:11:00,
2013-01-20 17:16:00,50.5,28.2,30.00,NNW,337,6.9,6.9,42,0.00,CLR,SCT,0.00,WeatherDisplay:10.37,2013-01-20 22:16:00,
2013-01-20 17:21:00,50.2,28.0,30.00,WNW,287,5.8,5.8,42,0.00,CLR,SCT,0.00,WeatherDisplay:10.37,2013-01-20 22:21:00,
2013-01-20 17:26:00,49.6,27.4,30.00,WSW,253,8.1,8.1,42,0.00,CLR,SCT,0.00,WeatherDisplay:10.37,2013-01-20 22:26:00,
2013-01-20 17:31:00,49.1,27.5,30.00,North,350,8.1,8.1,43,0.00,CLR,SCT,0.00,WeatherDisplay:10.37,2013-01-20 22:31:00,
2013-01-20 17:36:00,49.0,27.5,30.00,WSW,256,3.5,3.5,43,0.00,CLR,SCT,0.00,WeatherDisplay:10.37,2013-01-20 22:36:00,
2013-01-20 17:41:00,48.6,27.1,30.00,West,281,4.6,4.6,43,0.00,CLR,SCT,0.00,WeatherDisplay:10.37,2013-01-20 22:41:00,
2013-01-20 17:46:00,48.4,26.9,30.00,NNW,339,10.4,10.4,43,0.00,CLR,SCT,0.00,WeatherDisplay:10.37,2013-01-20 22:46:00,
2013-01-20 17:51:00,48.1,27.2,30.01,NW,308,4.6,4.6,44,0.00,CLR,SCT,0.00,WeatherDisplay:10.37,2013-01-20 22:51:00,
2013-01-20 17:56:00,48.0,27.6,30.01,WNW,292,5.8,5.8,45,0.00,CLR,SCT,0.00,WeatherDisplay:10.37,2013-01-20 22:56:00,
2013-01-20 18:01:00,48.0,27.1,30.01,NW,313,10.4,10.4,44,0.00,CLR,SCT,0.00,WeatherDisplay:10.37,2013-01-20 23:01:00,
2013-01-20 18:06:00,47.6,26.7,30.01,NW,323,5.8,5.8,44,0.00,CLR,SCT,0.00,WeatherDisplay:10.37,2013-01-20 23:06:00,
2013-01-20 18:11:00,47.2,26.4,30.01,NW,325,6.9,6.9,44,0.00,CLR,SCT,0.00,WeatherDisplay:10.37,2013-01-20 23:11:00,
2013-01-20 18:16:00,47.1,26.3,30.02,NNW,339,6.9,6.9,44,0.00,CLR,SCT,0.00,WeatherDisplay:10.37,2013-01-20 23:16:00,
2013-01-20 18:21:00,46.8,26.0,30.02,NW,309,8.1,8.1,44,0.00,CLR,SCT,0.00,WeatherDisplay:10.37,2013-01-20 23:21:00,
2013-01-20 18:26:00,46.6,25.8,30.03,North,4,5.8,5.8,44,0.00,CLR,SCT,0.00,WeatherDisplay:10.37,2013-01-20 23:26:00,
2013-01-20 18:31:00,46.3,25.6,30.03,NW,309,5.8,5.8,44,0.00,CLR,SCT,0.00,WeatherDisplay:10.37,2013-01-20 23:31:00,
2013-01-20 18:36:00,46.2,25.5,30.03,North,357,8.1,8.1,44,0.00,CLR,SCT,0.00,WeatherDisplay:10.37,2013-01-20 23:36:00,
2013-01-20 18:41:00,46.0,25.3,30.03,NW,320,5.8,5.8,44,0.00,CLR,SCT,0.00,WeatherDisplay:10.37,2013-01-20 23:41:00,
2013-01-20 18:46:00,45.8,25.6,30.03,West,260,2.3,2.3,45,0.00,CLR,SCT,0.00,WeatherDisplay:10.37,2013-01-20 23:46:00,
2013-01-20 18:51:00,45.7,25.0,30.03,WNW,296,6.9,6.9,44,0.00,CLR,SCT,0.00,WeatherDisplay:10.37,2013-01-20 23:51:00,
2013-01-20 18:56:00,45.6,25.5,30.03,NW,309,5.8,5.8,45,0.00,CLR,SCT,0.00,WeatherDisplay:10.37,2013-01-20 23:56:00,
2013-01-20 19:01:00,45.5,25.4,30.04,WNW,287,6.9,6.9,45,0.00,CLR,SCT,0.00,WeatherDisplay:10.37,2013-01-21 00:01:00,
2013-01-20 19:06:00,45.6,26.0,30.04,NNW,333,10.4,10.4,46,0.00,CLR,SCT,0.00,WeatherDisplay:10.37,2013-01-21 00:06:00,
2013-01-20 19:11:00,45.6,24.9,30.04,NNE,21,6.9,6.9,44,0.00,CLR,SCT,0.00,WeatherDisplay:10.37,2013-01-21 00:11:00,
2013-01-20 19:16:00,45.3,24.6,30.04,West,261,6.9,6.9,44,0.00,CLR,SCT,0.00,WeatherDisplay:10.37,2013-01-21 00:16:00,
2013-01-20 19:21:00,45.1,24.5,30.04,ENE,61,9.2,9.2,44,0.00,CLR,SCT,0.00,WeatherDisplay:10.37,2013-01-21 00:21:00,
2013-01-20 19:27:00,44.9,24.3,30.03,North,353,15.0,15.0,44,0.00,CLR,SCT,0.00,WeatherDisplay:10.37,2013-01-21 00:27:00,
2013-01-20 19:32:00,44.7,24.1,30.04,WNW,291,6.9,6.9,44,0.00,CLR,SCT,0.00,WeatherDisplay:10.37,2013-01-21 00:32:00,
2013-01-20 19:38:00,44.7,24.1,30.04,NNE,18,6.9,6.9,44,0.00,CLR,SCT,0.00,WeatherDisplay:10.37,2013-01-21 00:38:00,
2013-01-20 19:43:00,44.6,24.5,30.04,NE,47,4.6,4.6,45,0.00,CLR,SCT,0.00,WeatherDisplay:10.37,2013-01-21 00:43:00,
2013-01-20 19:48:00,44.5,24.5,30.04,ENE,72,3.5,3.5,45,0.00,CLR,SCT,0.00,WeatherDisplay:10.37,2013-01-21 00:48:00,
2013-01-20 19:53:00,44.3,23.7,30.04,NNW,337,8.1,8.1,44,0.00,CLR,SCT,0.00,WeatherDisplay:10.37,2013-01-21 00:53:00,
2013-01-20 19:58:00,44.4,24.9,30.04,NW,312,5.8,5.8,46,0.00,CLR,SCT,0.00,WeatherDisplay:10.37,2013-01-21 00:58:00,
2013-01-20 20:03:00,44.3,25.3,30.05,East,92,4.6,4.6,47,0.00,CLR,SCT,0.00,WeatherDisplay:10.37,2013-01-21 01:03:00,
2013-01-20 20:08:00,44.1,24.6,30.05,NNE,24,5.8,5.8,46,0.00,CLR,SCT,0.00,WeatherDisplay:10.37,2013-01-21 01:08:00,
2013-01-20 20:13:00,44.1,24.6,30.05,NNE,16,8.1,8.1,46,0.00,CLR,SCT,0.00,WeatherDisplay:10.37,2013-01-21 01:13:00,
2013-01-20 20:18:00,43.9,25.5,30.05,ENE,71,5.8,5.8,48,0.00,CLR,SCT,0.00,WeatherDisplay:10.37,2013-01-21 01:18:00,
2013-01-20 20:23:00,43.9,25.5,30.05,NNE,25,5.4,5.4,48,0.00,CLR,SCT,0.00,WeatherDisplay:10.37,2013-01-21 01:23:00,
2013-01-20 20:28:00,43.8,24.9,30.05,West,264,4.6,4.6,47,0.00,CLR,SCT,0.00,WeatherDisplay:10.37,2013-01-21 01:28:00,
2013-01-20 20:33:00,43.6,25.2,30.05,NNW,339,5.8,5.8,48,0.00,CLR,SCT,0.00,WeatherDisplay:10.37,2013-01-21 01:33:00,
2013-01-20 20:38:00,43.5,25.6,30.05,North,7,3.8,3.8,49,0.00,CLR,SCT,0.00,WeatherDisplay:10.37,2013-01-21 01:38:00,
2013-01-20 20:43:00,43.5,25.6,30.05,NW,312,6.9,6.9,49,0.00,CLR,SCT,0.00,WeatherDisplay:10.37,2013-01-21 01:43:00,
2013-01-20 20:48:00,43.3,25.4,30.05,North,352,4.6,4.6,49,0.00,CLR,SCT,0.00,WeatherDisplay:10.37,2013-01-21 01:48:00,
2013-01-20 20:53:00,43.1,25.7,30.05,ENE,73,4.6,4.6,50,0.00,CLR,SCT,0.00,WeatherDisplay:10.37,2013-01-21 01:53:00,
2013-01-20 20:58:00,43.0,25.1,30.05,NNE,23,8.1,8.1,49,0.00,CLR,SCT,0.00,WeatherDisplay:10.37,2013-01-21 01:58:00,
2013-01-20 21:03:00,43.0,25.6,30.04,NE,51,4.6,4.6,50,0.00,CLR,SCT,0.00,WeatherDisplay:10.37,2013-01-21 02:03:00,
2013-01-20 21:08:00,42.8,25.9,30.04,NE,40,6.9,6.9,51,0.00,CLR,SCT,0.00,WeatherDisplay:10.37,2013-01-21 02:08:00,
2013-01-20 21:13:00,42.8,25.9,30.05,East,99,8.1,8.1,51,0.00,CLR,SCT,0.00,WeatherDisplay:10.37,2013-01-21 02:13:00,
2013-01-20 21:18:00,42.6,25.7,30.05,North,356,4.6,4.6,51,0.00,CLR,SCT,0.00,WeatherDisplay:10.37,2013-01-21 02:18:00,
2013-01-20 21:23:00,42.4,25.5,30.05,ENE,73,5.8,5.8,51,0.00,CLR,SCT,0.00,WeatherDisplay:10.37,2013-01-21 02:23:00,
2013-01-20 21:28:00,42.5,26.1,30.05,ENE,65,3.5,3.5,52,0.00,CLR,SCT,0.00,WeatherDisplay:10.37,2013-01-21 02:28:00,
2013-01-20 21:33:00,42.5,26.1,30.05,NE,35,4.6,4.6,52,0.00,CLR,SCT,0.00,WeatherDisplay:10.37,2013-01-21 02:33:00,
2013-01-20 21:38:00,42.1,25.7,30.04,ENE,66,5.8,5.8,52,0.00,CLR,SCT,0.00,WeatherDisplay:10.37,2013-01-21 02:38:00,
2013-01-20 21:43:00,42.0,25.6,30.05,NNW,342,3.5,3.5,52,0.00,CLR,SCT,0.00,WeatherDisplay:10.37,2013-01-21 02:43:00,
2013-01-20 21:48:00,42.0,25.6,30.05,ENE,64,4.6,4.6,52,0.00,CLR,SCT,0.00,WeatherDisplay:10.37,2013-01-21 02:48:00,
2013-01-20 21:53:00,41.7,25.8,30.05,ENE,61,4.6,4.6,53,0.00,CLR,SCT,0.00,WeatherDisplay:10.37,2013-01-21 02:53:00,
2013-01-20 21:58:00,41.8,25.9,30.05,WSW,246,3.5,3.5,53,0.00,CLR,SCT,0.00,WeatherDisplay:10.37,2013-01-21 02:58:00,
2013-01-20 22:03:00,41.8,25.9,30.05,NNW,340,4.6,4.6,53,0.00,CLR,SCT,0.00,WeatherDisplay:10.37,2013-01-21 03:03:00,
2013-01-20 22:08:00,41.6,25.7,30.05,ENE,72,4.6,4.6,53,0.00,CLR,SCT,0.00,WeatherDisplay:10.37,2013-01-21 03:08:00,
2013-01-20 22:13:00,41.6,25.3,30.05,North,10,4.6,4.6,52,0.00,CLR,SCT,0.00,WeatherDisplay:10.37,2013-01-21 03:13:00,
2013-01-20 22:18:00,41.6,24.8,30.05,NE,44,4.6,4.6,51,0.00,CLR,SCT,0.00,WeatherDisplay:10.37,2013-01-21 03:18:00,
2013-01-20 22:23:00,41.5,25.2,30.05,NNE,21,3.9,3.9,52,0.00,CLR,SCT,0.00,WeatherDisplay:10.37,2013-01-21 03:23:00,
2013-01-20 22:28:00,41.5,25.2,30.05,NE,35,4.6,4.6,52,0.00,CLR,SCT,0.00,WeatherDisplay:10.37,2013-01-21 03:28:00,
2013-01-20 22:33:00,41.5,25.2,30.04,NNW,332,4.6,4.6,52,0.00,CLR,SCT,0.00,WeatherDisplay:10.37,2013-01-21 03:33:00,
2013-01-20 22:38:00,41.2,24.9,30.05,NNE,14,5.2,5.2,52,0.00,CLR,SCT,0.00,WeatherDisplay:10.37,2013-01-21 03:38:00,
2013-01-20 22:43:00,40.9,24.6,30.05,NNW,347,4.6,4.6,52,0.00,CLR,SCT,0.00,WeatherDisplay:10.37,2013-01-21 03:43:00,
2013-01-20 22:48:00,41.0,25.2,30.05,NE,49,5.8,5.8,53,0.00,CLR,SCT,0.00,WeatherDisplay:10.37,2013-01-21 03:48:00,
2013-01-20 22:53:00,41.0,25.6,30.05,East,79,3.5,3.5,54,0.00,CLR,SCT,0.00,WeatherDisplay:10.37,2013-01-21 03:53:00,
2013-01-20 22:58:00,40.9,25.5,30.05,NNE,25,6.9,6.9,54,0.00,CLR,SCT,0.00,WeatherDisplay:10.37,2013-01-21 03:58:00,
2013-01-20 23:03:00,40.9,25.5,30.05,NE,56,3.5,3.5,54,0.00,CLR,SCT,0.00,WeatherDisplay:10.37,2013-01-21 04:03:00,
2013-01-20 23:08:00,40.8,25.0,30.05,NNE,23,4.6,4.6,53,0.00,CLR,SCT,0.00,WeatherDisplay:10.37,2013-01-21 04:08:00,
2013-01-20 23:13:00,40.8,25.0,30.05,NE,54,5.8,5.8,53,0.00,CLR,SCT,0.00,WeatherDisplay:10.37,2013-01-21 04:13:00,
2013-01-20 23:18:00,40.6,25.2,30.05,NNE,23,4.6,4.6,54,0.00,CLR,SCT,0.00,WeatherDisplay:10.37,2013-01-21 04:18:00,
2013-01-20 23:23:00,40.7,25.3,30.05,NE,48,2.9,2.9,54,0.00,CLR,SCT,0.00,WeatherDisplay:10.37,2013-01-21 04:23:00,
2013-01-20 23:28:00,40.5,24.7,30.05,NNE,13,3.5,3.5,53,0.00,CLR,SCT,0.00,WeatherDisplay:10.37,2013-01-21 04:28:00,
2013-01-20 23:33:00,40.4,24.6,30.04,North,352,8.1,8.1,53,0.00,CLR,SCT,0.00,WeatherDisplay:10.37,2013-01-21 04:33:00,
2013-01-20 23:38:00,40.2,24.9,30.04,North,11,4.6,4.6,54,0.00,CLR,SCT,0.00,WeatherDisplay:10.37,2013-01-21 04:38:00,
2013-01-20 23:43:00,40.1,25.2,30.04,NNE,18,5.8,5.8,55,0.00,CLR,SCT,0.00,WeatherDisplay:10.37,2013-01-21 04:43:00,
2013-01-20 23:48:00,40.3,25.4,30.04,NE,38,6.9,6.9,55,0.00,CLR,SCT,0.00,WeatherDisplay:10.37,2013-01-21 04:48:00,
2013-01-20 23:53:00,40.2,24.9,30.04,NE,44,5.8,5.8,54,0.00,CLR,SCT,0.00,WeatherDisplay:10.37,2013-01-21 04:53:00,
2013-01-20 23:58:00,40.1,25.6,30.04,NNE,27,4.1,4.1,56,0.00,CLR,SCT,0.00,WeatherDisplay:10.37,2013-01-21 04:58:00,